Location: Buena Vista
(37.7110°N, 119.7938°W)
Time: 07:13:27
(UTC+00:00)

Hubble Space Telescope - Pass Details

Date: 14 August 2024
Orbit: 505 x 509 km, 28.5° (Epoch: 19 September)

Event Time Altitude Azimuth Distance (km) Brightness Sun altitude
Exits shadow 12:15:14 13° 209° (SSW) 1,527 2.6 -11.6°
Maximum altitude 12:17:21 19° 172° (S) 1,256 2.5 -11.2°
Drops below altitude 10° 12:20:10 10° 126° (SE) 1,716 3.7 -10.7°
Sets 12:22:53 0° 108° (ESE) 2,604 5.0 -10.2°
